Theta_e
332 324 325 322 308 307 304 308 312 311 314 320 321 332 327 326 322 315 336 348 364 361 360 361 366 366 367 367 365 364 362 361 360 360 360 359 360 360 362 364 364 364 361 359 357 356 354 353 353
324 325 320 316 305 301 304 310 309 313 316 322 325 335 332 335 337 336 337 358 362 361 361 359 365 366 366 366 365 363 362 361 361 361 361 360 361 361 362 363 363 363 360 357 355 354 353 353 353
323 323 314 310 306 301 304 310 312 314 319 324 325 335 334 334 349 350 356 358 360 357 358 361 365 365 365 365 365 364 362 361 361 362 361 361 361 362 362 363 363 362 360 357 355 355 354 353 354
320 318 314 306 304 308 309 312 313 314 317 322 326 326 342 351 350 354 356 356 357 356 361 361 364 365 365 364 364 364 363 362 362 362 362 361 362 363 363 362 362 362 360 358 357 356 354 353 353
319 316 306 304 305 309 312 313 313 313 316 318 322 321 329 348 354 355 356 355 354 359 359 357 364 363 363 363 363 364 364 363 363 363 362 362 362 363 363 363 362 361 361 360 359 356 354 353 353
310 312 304 302 306 310 311 313 313 314 317 318 318 318 320 337 346 348 351 352 353 355 352 352 360 362 363 362 363 363 363 363 363 363 362 362 363 362 362 363 362 362 363 360 359 357 354 352 350
310 308 304 305 306 308 310 314 312 314 316 315 320 315 320 327 338 344 345 346 349 354 354 352 349 357 360 361 362 362 362 362 362 362 362 362 362 362 362 362 362 362 362 361 359 357 354 352 350
311 309 304 306 305 306 312 312 314 313 313 320 320 313 314 322 326 334 340 344 346 348 357 356 355 350 349 353 361 361 361 361 361 361 361 361 361 362 361 360 361 361 362 361 359 358 355 352 349
314 304 302 305 306 308 313 310 314 316 314 316 318 317 319 322 324 324 328 329 333 335 339 352 356 356 351 350 353 360 360 360 360 360 360 359 356 355 355 356 356 359 361 361 360 358 356 352 350
308 303 305 310 311 310 312 311 313 312 312 313 314 318 320 322 322 321 320 321 322 323 327 329 337 345 348 348 357 351 351 350 351 350 351 355 350 349 349 353 355 358 359 359 359 358 357 354 342
310 304 310 310 311 312 311 310 313 310 311 315 314 317 319 320 322 322 323 324 325 329 332 333 337 339 338 340 357 361 362 353 353 351 351 353 350 347 346 344 350 351 358 354 354 353 351 345 342
306 310 310 310 311 309 308 312 310 311 315 318 319 321 322 322 323 324 325 326 327 329 334 334 337 341 342 341 341 351 360 347 355 357 355 354 356 355 354 347 347 349 351 351 350 349 348 345 342
308 311 311 312 311 311 312 310 310 312 318 319 320 321 321 324 325 326 328 329 330 329 333 334 338 346 347 342 342 341 346 351 360 349 340 339 347 344 356 353 353 353 352 352 350 346 347 346 344
313 312 311 312 312 313 310 310 311 315 318 318 319 319 321 322 324 325 327 328 331 334 334 335 336 343 339 344 346 344 342 346 350 351 334 341 349 342 355 357 356 355 354 352 349 345 345 346 344
311 307 310 311 312 311 312 309 308 316 317 316 317 319 321 322 324 324 325 329 331 331 337 336 336 338 345 342 341 340 340 338 339 347 356 350 355 361 361 360 361 356 357 356 355 353 352 349 349
308 308 303 310 311 312 310 303 312 316 316 315 316 318 318 321 323 325 327 329 332 333 334 337 334 335 339 341 340 339 340 340 339 339 344 353 358 359 364 359 356 357 356 356 355 353 350 346 347
309 302 305 306 312 310 309 305 314 317 315 314 315 317 318 319 322 327 326 327 330 332 334 333 337 334 337 338 338 339 340 339 339 340 337 341 351 351 358 357 356 358 355 356 355 352 349 346 348
303 304 305 304 309 309 306 306 313 315 314 313 314 316 316 318 320 323 326 328 330 332 335 336 335 338 339 337 337 336 336 337 338 338 339 342 342 348 354 355 355 355 352 351 352 351 351 345 344
305 304 302 306 309 306 305 305 308 313 314 313 313 315 316 317 321 324 326 329 330 333 335 336 334 339 336 333 331 332 330 332 333 335 337 339 339 343 350 348 355 355 350 349 351 350 347 345 347
305 302 303 306 309 306 305 304 308 310 313 314 314 314 316 317 319 321 327 330 333 333 335 336 336 338 337 332 333 333 333 333 334 335 335 336 337 338 338 348 349 354 351 349 348 347 344 345 345
305 303 303 302 305 306 304 302 306 311 313 314 315 316 317 317 317 320 322 329 330 331 333 331 337 338 338 337 333 332 330 329 328 331 333 337 339 340 342 344 347 349 348 346 348 348 346 340 344
301 308 306 302 301 296 305 294 302 308 309 312 314 314 315 316 317 318 319 323 326 328 331 335 335 337 334 336 333 330 325 323 325 325 329 330 334 336 338 340 340 347 347 345 346 348 345 344 340
301 306 303 302 300 300 301 297 302 309 307 308 311 315 315 315 315 316 316 319 321 324 327 334 335 335 336 335 332 329 326 325 325 325 326 328 330 332 336 337 336 336 343 344 344 344 343 342 340
305 302 305 305 303 296 301 300 300 305 307 309 313 314 313 314 315 316 319 320 321 320 323 330 333 333 333 333 331 330 327 326 325 324 323 322 324 328 329 331 333 338 336 338 343 345 344 342 342
306 303 296 293 295 293 303 300 302 309 311 311 310 311 313 314 314 314 316 316 319 319 321 322 327 328 329 326 326 326 325 324 323 323 322 321 321 324 327 332 335 335 338 339 338 340 340 342 340
303 301 299 286 289 293 300 296 301 310 312 312 312 313 314 314 313 314 315 316 316 319 322 322 322 322 323 323 324 326 324 321 320 319 319 318 319 320 323 326 326 329 331 333 337 338 340 341 341
305 301 305 297 300 294 297 302 307 310 310 311 311 312 312 313 314 314 315 317 318 320 322 323 323 321 322 322 321 320 319 317 314 314 314 313 317 318 320 322 323 328 330 332 334 333 337 339 340
304 307 298 302 290 289 294 296 299 304 306 309 309 311 312 313 312 314 314 317 318 320 322 324 322 320 320 319 317 315 315 314 313 312 311 311 312 314 315 317 318 323 325 327 329 332 334 336 338
304 302 302 302 299 296 290 294 306 306 309 309 310 311 312 311 312 313 314 316 318 320 319 320 320 318 317 315 313 312 311 311 311 310 309 310 311 312 314 316 318 319 321 325 327 330 333 333 336
303 301 303 297 295 301 299 297 309 310 310 311 311 312 311 312 312 312 313 315 316 319 319 318 319 316 314 312 309 307 308 308 307 308 308 309 309 311 312 314 315 317 319 322 325 327 330 332 333
Wind_Speed
14 14 10 10 7 8 15 18 10 3 1 9 12 17 23 7 11 9 18 22 22 17 13 12 11 9 10 11 12 13 12 11 11 10 9 9 7 7 7 7 7 7 7 7 6 7 6 5 4
11 18 9 8 9 12 11 9 7 10 12 11 9 23 25 14 12 5 4 3 19 16 11 12 12 10 10 10 11 12 12 12 12 10 9 10 9 9 8 7 7 7 6 6 6 6 5 4 4
12 16 8 8 12 15 6 13 14 8 3 6 10 21 10 9 16 18 9 14 15 13 12 12 12 11 11 11 10 11 12 12 12 12 12 10 8 8 8 8 8 7 7 6 6 5 5 5 4
8 7 7 9 16 16 10 12 7 4 3 3 10 14 15 11 12 14 16 14 15 17 14 13 11 9 9 10 9 9 10 11 10 11 11 10 10 10 8 7 7 7 8 8 7 6 6 6 6
8 8 11 14 16 3 7 8 6 8 6 4 2 17 15 12 15 12 13 13 15 19 13 12 11 9 8 9 9 9 8 10 10 10 10 11 11 10 9 9 9 9 8 8 8 8 7 7 7
8 8 11 14 18 9 6 6 8 6 6 7 2 14 11 6 7 12 10 12 16 18 14 10 9 8 7 8 8 8 8 8 9 9 10 10 10 11 11 11 10 10 9 9 9 8 8 8 8
12 11 15 19 12 9 8 6 8 6 2 12 12 8 9 13 6 7 9 10 12 17 16 14 13 12 11 9 8 8 8 8 9 9 9 10 11 11 12 12 11 11 10 9 9 9 9 9 9
11 12 18 17 15 3 14 2 7 6 11 7 5 12 11 9 12 4 8 12 14 13 18 15 13 13 11 13 17 15 13 11 10 10 11 11 11 11 11 11 12 12 12 11 11 10 10 9 9
10 10 13 18 15 9 13 2 8 6 8 2 8 15 10 7 10 13 5 3 4 4 6 13 15 15 12 14 14 15 17 15 12 10 11 9 7 10 13 13 13 16 14 14 13 12 11 11 10
9 10 15 15 16 11 11 6 7 1 9 5 7 10 5 7 6 10 6 8 14 17 20 17 18 10 5 6 10 7 6 7 8 9 7 7 7 8 11 14 20 18 18 16 14 13 12 10 7
9 13 11 6 12 11 7 3 1 4 7 13 14 12 12 7 8 12 17 16 18 17 16 15 15 13 16 13 0 4 3 4 6 8 6 7 7 6 7 5 8 8 12 8 10 10 8 10 9
9 8 6 3 8 4 4 5 2 2 12 10 11 12 12 14 13 15 16 17 17 16 15 16 15 11 11 8 8 4 5 9 6 2 8 8 4 5 5 6 6 9 8 12 11 8 11 13 13
8 6 2 3 1 4 6 4 6 8 8 6 7 8 10 11 12 11 11 12 11 12 12 12 11 6 6 8 8 9 10 3 8 8 10 10 14 8 5 6 5 5 9 11 11 11 11 13 13
7 5 4 5 7 5 6 7 1 12 5 4 6 8 9 10 9 10 9 9 9 8 9 9 10 7 9 7 7 7 7 10 7 7 10 17 13 17 8 6 5 5 5 6 6 9 10 8 12
7 9 8 6 5 3 3 8 11 11 5 6 6 5 7 7 9 10 10 8 8 8 8 8 9 10 7 9 9 8 8 8 7 7 5 22 20 6 5 5 2 4 6 8 5 5 3 4 5
10 10 12 15 5 8 2 12 14 9 7 6 3 6 0 8 8 9 9 8 7 7 7 8 9 11 10 9 9 8 8 8 7 7 8 7 6 7 7 5 5 6 6 6 4 3 5 4 4
10 10 10 12 11 1 4 10 14 10 7 6 2 4 6 4 7 8 8 8 7 7 7 8 8 10 10 10 9 10 10 8 7 7 7 10 7 7 8 7 6 8 7 6 3 4 5 5 4
12 7 2 3 11 9 8 13 14 13 7 5 5 1 2 3 3 4 4 5 6 6 6 7 7 8 8 8 9 8 8 8 7 7 7 8 8 9 5 7 9 10 9 8 6 6 5 6 6
10 9 7 6 4 3 8 12 13 12 10 5 7 7 2 2 4 5 5 4 3 4 5 5 6 6 6 7 8 8 9 10 11 11 13 11 10 13 7 7 6 9 10 10 6 7 9 7 5
8 7 10 4 3 3 10 14 15 12 12 7 7 3 3 5 4 6 5 4 3 3 4 4 5 5 5 6 7 8 7 9 9 10 12 14 12 10 9 9 8 7 6 10 7 8 7 6 7
9 7 9 10 13 12 17 17 17 13 10 8 4 3 5 6 4 7 7 4 5 5 4 5 4 5 4 7 6 7 8 10 10 10 10 8 11 10 7 7 7 10 10 7 8 8 10 9 6
11 11 5 8 10 11 15 11 15 14 11 10 7 3 4 3 7 9 9 8 6 6 5 4 5 6 6 6 6 7 8 9 9 11 11 13 16 14 13 9 9 10 9 11 10 8 10 9 10
10 8 10 11 12 13 14 9 3 13 12 15 9 11 9 7 9 9 11 10 9 7 6 4 5 6 7 8 7 7 8 8 8 8 12 15 13 14 15 11 11 11 7 12 13 14 12 10 11
8 11 14 16 13 10 12 7 7 6 10 14 13 10 6 9 11 10 10 9 7 10 8 4 4 5 6 7 9 11 10 10 9 10 9 10 11 12 13 15 12 12 10 10 11 13 16 11 11
10 12 6 5 9 7 12 3 8 8 10 6 1 5 10 11 13 14 14 13 12 11 9 7 7 6 6 9 10 11 11 12 14 13 10 12 11 10 12 13 11 9 10 10 11 11 14 12 12
7 4 2 4 7 12 15 9 8 10 7 1 2 7 11 11 12 13 13 13 13 12 8 9 9 10 9 10 11 9 11 9 9 11 11 11 11 12 16 16 15 15 14 13 10 8 9 11 12
1 4 6 2 7 6 7 5 10 15 10 10 11 12 12 11 11 13 12 10 11 11 10 9 10 11 11 12 12 12 12 13 12 14 14 12 14 12 16 16 17 16 14 12 13 8 11 11 12
9 4 5 4 2 5 9 6 2 7 1 5 8 11 10 10 13 12 13 11 10 11 10 10 12 13 14 14 13 13 15 14 15 14 16 17 16 16 17 17 17 16 16 15 13 12 11 11 10
10 11 5 3 3 3 4 3 5 5 8 8 11 11 13 13 13 12 12 11 12 11 13 13 13 14 14 14 14 15 15 15 15 15 16 16 17 17 17 17 16 16 17 15 14 14 13 12 12
9 10 6 3 7 4 5 7 10 4 8 8 11 11 12 14 15 14 16 16 15 12 12 13 13 14 14 14 15 16 16 16 17 16 17 16 17 17 16 16 16 16 15 15 15 15 13 13 13
Wind_Direction
284 255 238 256 252 229 257 250 79 347 142 14 332 57 56 326 131 159 234 257 112 123 129 131 116 121 128 136 142 139 140 141 140 144 146 149 149 145 140 139 140 144 145 143 146 147 147 145 139
291 286 245 279 253 266 260 99 117 40 2 328 275 100 153 102 88 315 273 195 101 120 146 134 127 133 133 135 144 146 147 148 151 154 157 158 162 162 161 158 159 161 160 165 165 159 166 169 163
263 267 270 232 237 260 26 39 29 32 331 294 321 65 40 4 98 141 128 103 111 125 133 131 134 136 139 141 144 152 154 155 161 162 162 163 168 171 169 170 174 178 180 184 187 184 181 187 187
249 216 247 252 263 256 54 59 1 291 176 298 340 84 68 57 81 94 112 130 141 130 118 127 123 126 130 136 142 148 157 159 167 169 166 167 171 172 172 179 182 191 192 196 198 194 197 201 205
239 272 249 269 256 255 53 61 312 314 8 337 22 83 71 68 104 107 125 127 121 103 114 127 120 125 136 140 148 151 158 160 170 174 174 175 176 178 179 187 191 196 203 209 209 202 204 210 212
240 232 268 260 245 106 79 49 302 293 42 43 328 77 73 74 32 104 99 97 96 104 110 132 126 137 147 152 157 159 161 164 173 176 180 182 185 184 187 192 198 204 211 212 217 212 215 214 216
253 263 264 285 298 106 98 52 290 342 22 45 353 100 101 62 32 60 111 112 121 131 139 149 160 166 168 168 169 170 170 176 180 183 187 188 191 194 195 196 200 205 210 215 221 222 222 225 226
248 277 279 275 280 348 101 105 47 303 42 58 329 12 80 62 336 190 205 163 158 156 147 155 165 171 176 179 184 182 180 187 194 194 194 196 200 205 205 201 205 206 207 210 217 224 227 231 236
273 268 262 262 245 102 115 217 122 28 299 44 46 64 40 12 338 322 28 260 155 116 193 151 174 161 187 198 179 187 187 186 196 212 212 200 217 213 221 216 221 204 206 209 213 217 225 235 240
233 236 268 8 12 32 78 341 69 331 223 202 172 110 84 347 20 326 346 341 23 30 32 29 27 14 339 356 156 179 189 191 192 208 218 217 240 239 228 207 206 203 204 206 212 218 222 227 242
223 248 359 34 16 5 27 98 181 308 28 25 9 33 40 352 37 3 14 20 20 24 26 8 22 3 11 352 139 178 183 4 228 193 199 219 217 239 244 243 204 201 200 206 208 212 222 229 227
263 251 317 50 69 325 299 288 35 3 63 27 37 31 30 19 39 23 15 19 11 16 23 5 5 10 3 346 330 336 172 166 289 34 349 342 244 240 238 232 213 192 201 207 212 201 209 217 228
247 264 236 48 322 255 315 282 267 101 52 60 61 47 71 36 35 54 30 32 17 15 20 5 341 3 341 349 339 328 328 196 176 146 138 170 254 272 227 237 248 235 207 198 204 214 205 210 215
350 333 192 238 237 139 255 222 200 103 143 113 76 46 54 71 51 37 39 31 25 14 23 2 334 6 359 336 321 310 313 321 317 157 180 178 224 245 187 213 233 226 257 280 208 208 210 203 203
281 265 232 215 235 196 281 227 184 115 172 139 131 118 108 62 51 40 23 27 30 3 17 355 331 10 334 349 335 319 301 311 308 302 267 190 213 224 236 232 221 248 232 236 276 289 264 223 208
238 222 246 180 154 142 241 274 137 132 174 201 131 153 132 107 72 36 14 16 21 4 3 351 351 328 357 335 321 304 298 301 300 293 302 266 229 212 189 217 234 277 277 238 211 247 284 252 228
202 236 195 158 169 103 191 299 127 164 170 253 178 217 121 24 56 76 11 0 5 2 5 347 349 345 343 326 307 296 285 276 274 267 272 283 279 285 212 203 211 233 263 277 259 213 231 271 265
344 315 345 129 153 176 251 264 173 174 202 223 225 156 17 85 7 38 20 353 349 0 359 350 340 335 337 323 305 313 309 306 306 294 270 251 269 249 267 222 209 213 229 244 234 222 225 232 249
310 299 295 308 88 29 276 281 295 183 171 199 199 176 183 14 351 348 354 301 344 353 340 339 330 339 341 323 313 336 324 316 314 313 313 323 331 334 262 253 268 195 220 226 234 220 227 238 226
300 290 269 245 236 238 266 261 268 264 175 181 153 142 44 360 337 323 308 322 340 337 321 327 314 323 324 310 323 292 293 293 290 286 286 292 288 281 277 290 255 279 251 220 228 239 228 229 224
254 268 318 342 335 302 264 259 246 220 121 118 114 142 239 248 318 325 333 356 15 350 336 321 333 333 326 301 310 327 331 324 317 316 317 304 298 307 300 274 261 271 259 256 236 232 225 230 230
295 11 348 296 287 283 337 305 297 172 152 154 301 134 271 329 342 354 333 4 357 331 334 16 4 341 320 320 311 301 300 301 311 308 318 322 320 322 316 307 303 249 251 254 253 258 230 221 230
291 5 305 287 280 284 281 263 8 109 79 86 196 244 247 349 349 337 355 342 334 353 326 23 20 350 345 322 280 282 280 280 285 288 306 310 308 306 307 296 276 270 271 251 252 256 259 225 229
300 288 263 242 240 249 311 279 141 123 150 171 213 228 315 347 333 353 351 328 356 333 317 347 16 345 319 319 326 317 307 299 295 292 292 291 287 288 281 280 278 255 261 259 248 257 254 240 234
231 257 290 288 221 229 230 215 99 141 150 92 83 327 352 348 349 350 337 349 342 317 340 340 350 331 350 336 322 317 319 318 307 300 297 293 287 286 292 302 313 321 302 256 253 240 252 255 234
307 326 115 227 344 324 318 340 95 75 68 32 41 354 351 336 344 340 349 348 325 326 333 350 342 351 336 326 317 314 309 306 307 305 314 302 294 291 292 293 294 293 293 294 298 271 252 251 244
274 298 63 286 299 289 257 75 105 63 41 15 345 340 326 338 343 339 350 328 326 336 356 354 3 342 334 334 333 333 329 317 306 298 295 294 292 283 279 279 276 286 301 298 295 271 265 246 249
254 31 240 137 286 296 326 345 79 175 79 252 309 312 314 334 341 357 336 330 348 345 340 4 352 349 344 344 337 324 310 304 299 294 289 282 277 279 278 278 280 284 281 280 282 285 260 252 249
190 222 212 322 319 261 306 320 55 119 205 329 327 332 307 345 348 340 324 340 349 352 357 355 354 352 342 340 329 315 308 308 301 295 290 284 279 274 270 267 266 270 275 271 265 264 266 256 250
313 302 304 291 283 181 265 269 308 307 34 287 275 288 347 344 340 342 353 352 340 350 357 351 354 348 340 333 319 313 306 301 295 287 282 278 275 273 270 268 267 265 267 271 269 262 260 253 246